Rexburg, ID

8:03 AM MDT on June 25, 2018 (GMT -0600)
Rexburg-Madison County

Weather History for KRXE - September, 2017

Change the Weather History Date:

Friday, September 15, 2017

  Actual Average Record
Temperature  
Mean Temperature 45 °F 56 °F  
Max Temperature 52 °F 72 °F 91 °F (2000)
Min Temperature 38 °F 40 °F 33 °F (2003)
Degree Days  
Heating Degree Days 20 9  
Month to date heating degree days 25 101  
Since 1 July heating degree days 38 174  
Cooling Degree Days 0 0  
Month to date cooling degree days 38 5  
Year to date cooling degree days 347 207  
Moisture  
Dew Point 42 °F    
Average Humidity 86    
Maximum Humidity 100    
Minimum Humidity 71    
Precipitation  
Precipitation 0.39 in 0.02 in 0.86 in (2006)
Month to date precipitation 0.90 0.43  
Year to date precipitation 9.27 9.35  
Sea Level Pressure  
Sea Level Pressure 29.87 in    
Wind  
Wind Speed 7 mph (WSW)    
Max Wind Speed 21 mph    
Max Gust Speed 27 mph    
Visibility 8 miles    
Events Rain    
T = Trace of Precipitation, MM = Missing Value Source: NWS Daily Summary

Daily Weather History Graph

Daily Weather History Graph

Search for Another Location

Airport or City:

Astronomy

Sep. 15, 2017 Rise Set
Actual Time 7:06 AM MDT 7:36 PM MDT
Civil Twilight 6:37 AM MDT 8:05 PM MDT
Nautical Twilight 6:03 AM MDT 8:39 PM MDT
Astronomical Twilight 5:28 AM MDT 9:14 PM MDT
Moon 1:56 AM MDT (9/15) 5:01 PM MDT (9/15)
Length of Visible Light 13h 27m
Length of Day
12h 30m
Waning Crescent, 23% of the Moon is Illuminated
Sep 15
Waning Crescent
Sep 19
New
Sep 27
First Quarter
Oct 5
Full
Oct 12
Last Quarter

Hourly Weather History & Observations

Time (MDT) Temp. Windchill Dew Point Humidity Pressure Visibility Wind Dir Wind Speed Gust Speed Precip Events Conditions
12:53 AM 51.1 °F - 48.9 °F 92% 29.72 in 10.0 mi East 8.1 mph - 0.00 in   Mostly Cloudy
1:53 AM 52.0 °F - 48.0 °F 86% 29.73 in 10.0 mi Calm Calm - N/A   Overcast
2:53 AM 50.0 °F - 48.0 °F 93% 29.72 in 10.0 mi North 8.1 mph - N/A   Overcast
3:53 AM 50.0 °F - 48.0 °F 93% 29.70 in 10.0 mi ENE 5.8 mph - 0.00 in   Overcast
4:53 AM 50.0 °F - 46.0 °F 86% 29.74 in 10.0 mi Calm Calm - 0.01 in Rain Light Rain
5:23 AM 48.0 °F - 46.0 °F 93% 29.83 in 8.0 mi SSW 9.2 mph 18.4 mph 0.02 in Rain Light Rain
5:53 AM 46.9 °F - 46.0 °F 97% 29.78 in 6.0 mi SSW 4.6 mph - 0.05 in Rain Light Rain
6:53 AM 46.9 °F - 37.9 °F 71% 29.78 in 4.0 mi South 6.9 mph - 0.12 in Rain Light Rain
7:53 AM 46.9 °F - - N/A% 29.79 in 9.0 mi South 9.2 mph - 0.03 in   Overcast
8:36 AM 46.0 °F 39.0 °F 43.0 °F 89% 29.84 in 1.8 mi SSW 17.3 mph - 0.00 in Rain Light Rain
8:51 AM 46.4 °F 40.4 °F 44.6 °F 93% 29.85 in 2.5 mi SSW 13.8 mph - 0.01 in Rain Light Rain
8:53 AM 46.0 °F 40.2 °F 45.0 °F 96% 29.80 in 2.5 mi SSW 12.7 mph - 0.01 in Rain Light Rain
9:26 AM 45.0 °F 37.6 °F 45.0 °F 100% 29.86 in 4.0 mi SSW 17.3 mph 25.3 mph 0.01 in Rain Light Rain
9:44 AM 46.0 °F 40.2 °F 45.0 °F 96% 29.86 in 5.0 mi SSW 12.7 mph - 0.03 in Rain Light Rain
9:51 AM 46.4 °F 40.7 °F 44.6 °F 93% 29.87 in 4.0 mi SSW 12.7 mph - 0.05 in Rain Rain
9:53 AM 46.0 °F 40.2 °F 45.0 °F 96% 29.82 in 4.0 mi SSW 12.7 mph 20.7 mph 0.05 in Rain Rain
10:28 AM 45.0 °F 37.4 °F 44.1 °F 97% 29.87 in 4.0 mi SSW 18.4 mph 26.5 mph 0.05 in Rain Light Rain
10:53 AM 46.0 °F 40.6 °F 44.1 °F 93% 29.84 in 10.0 mi SSW 11.5 mph 21.9 mph 0.06 in Rain Light Rain
11:33 AM 45.0 °F 38.9 °F 44.1 °F 97% 29.88 in 9.0 mi WSW 12.7 mph - 0.02 in Rain Light Rain
11:53 AM 45.0 °F 38.9 °F 44.1 °F 97% 29.85 in 10.0 mi SW 12.7 mph - 0.03 in Rain Light Rain
12:28 PM 44.1 °F 38.1 °F 42.1 °F 93% 29.90 in 10.0 mi SW 11.5 mph - 0.00 in Rain Light Rain
12:53 PM 44.1 °F 38.1 °F 42.1 °F 93% 29.88 in 10.0 mi WSW 11.5 mph - 0.00 in   Overcast
1:53 PM 44.1 °F 38.6 °F 41.0 °F 89% 29.91 in 10.0 mi WSW 10.4 mph - N/A   Overcast
2:13 PM 44.1 °F 38.1 °F 39.9 °F 85% 29.94 in 10.0 mi West 11.5 mph - N/A   Overcast
2:20 PM 44.1 °F 38.6 °F 39.9 °F 85% 29.94 in 10.0 mi WNW 10.4 mph - N/A   Overcast
2:53 PM 44.1 °F 40.8 °F 37.9 °F 79% 29.93 in 10.0 mi WNW 5.8 mph - N/A   Overcast
3:53 PM 45.0 °F - 37.9 °F 76% 29.93 in 10.0 mi Calm Calm - N/A   Overcast
4:53 PM 45.0 °F - 37.9 °F 76% 29.92 in 10.0 mi Calm Calm - N/A   Overcast
5:53 PM 45.0 °F 43.5 °F 39.0 °F 80% 29.94 in 10.0 mi North 3.5 mph - N/A   Overcast
6:53 PM 44.1 °F 39.5 °F 39.9 °F 85% 29.94 in 10.0 mi North 8.1 mph - N/A   Overcast
7:25 PM 44.1 °F 40.1 °F 39.9 °F 85% 29.96 in 7.0 mi NW 6.9 mph - 0.01 in Rain Light Rain
7:36 PM 42.1 °F 38.4 °F 41.0 °F 96% 29.97 in 10.0 mi WNW 5.8 mph - 0.01 in Rain Light Rain
7:53 PM 42.1 °F 38.4 °F 41.0 °F 96% 29.96 in 10.0 mi WNW 5.8 mph - 0.01 in Rain Light Rain
8:53 PM 39.9 °F 35.8 °F 39.0 °F 97% 30.00 in 10.0 mi WNW 5.8 mph - 0.01 in Rain Light Rain
9:53 PM 39.9 °F 35.8 °F 37.0 °F 89% 30.01 in 10.0 mi West 5.8 mph - 0.01 in   Overcast
10:53 PM 39.9 °F 33.4 °F 37.0 °F 89% 30.04 in 10.0 mi WSW 10.4 mph - N/A   Overcast
11:53 PM 37.9 °F 35.5 °F 35.1 °F 89% 30.05 in 10.0 mi West 3.5 mph - N/A   Scattered Clouds